TimeEST,TemperatureF,Dew PointF,Humidity,Sea Level PressureIn,VisibilityMPH,Wind Direction,Wind SpeedMPH,Gust SpeedMPH,PrecipitationIn,Events,Conditions,WindDirDegrees,DateUTC
12:54 AM,27.0,15.1,61,30.24,10.0,NW,12.7,-,N/A,,Clear,320,2012-12-26 05:54:00
1:54 AM,26.1,12.9,58,30.26,10.0,NNW,10.4,-,N/A,,Scattered Clouds,330,2012-12-26 06:54:00
2:54 AM,26.1,12.9,58,30.30,10.0,NW,12.7,-,N/A,,Clear,320,2012-12-26 07:54:00
3:54 AM,25.0,12.0,58,30.28,10.0,NNW,9.2,-,N/A,,Clear,330,2012-12-26 08:54:00
4:54 AM,24.1,12.0,60,30.29,10.0,NNW,6.9,-,N/A,,Partly Cloudy,340,2012-12-26 09:54:00
5:54 AM,23.0,12.0,63,30.28,10.0,NNW,3.5,-,N/A,,Clear,330,2012-12-26 10:54:00
6:54 AM,23.0,12.0,63,30.29,10.0,NW,6.9,-,N/A,,Partly Cloudy,320,2012-12-26 11:54:00
7:54 AM,24.1,12.0,60,30.30,10.0,NNW,8.1,-,N/A,,Scattered Clouds,330,2012-12-26 12:54:00
8:54 AM,26.1,12.9,58,30.32,10.0,NNW,6.9,-,N/A,,Scattered Clouds,330,2012-12-26 13:54:00
9:54 AM,30.0,16.0,56,30.32,10.0,North,4.6,-,N/A,,Scattered Clouds,350,2012-12-26 14:54:00
10:54 AM,34.0,21.9,61,30.31,10.0,NNE,8.1,-,N/A,,Mostly Cloudy,30,2012-12-26 15:54:00
11:54 AM,34.0,21.9,61,30.26,10.0,NE,12.7,-,N/A,,Mostly Cloudy,40,2012-12-26 16:54:00
12:54 PM,35.1,24.1,64,30.26,10.0,NNE,10.4,-,N/A,,Overcast,30,2012-12-26 17:54:00
1:54 PM,34.0,24.1,67,30.24,10.0,NNE,12.7,-,N/A,,Overcast,30,2012-12-26 18:54:00
2:48 PM,33.8,24.8,70,30.24,10.0,NE,10.4,-,N/A,,Overcast,40,2012-12-26 19:48:00
2:54 PM,34.0,25.0,70,30.25,10.0,NNE,9.2,-,N/A,,Overcast,20,2012-12-26 19:54:00
3:54 PM,35.1,26.1,70,30.22,10.0,ENE,13.8,-,N/A,,Overcast,60,2012-12-26 20:54:00
4:54 PM,36.0,28.0,73,30.21,10.0,East,12.7,-,N/A,,Overcast,80,2012-12-26 21:54:00
5:54 PM,37.0,28.9,73,30.18,10.0,East,17.3,-,0.00,,Overcast,90,2012-12-26 22:54:00
6:54 PM,37.0,30.9,79,30.16,10.0,East,23.0,28.8,0.00,Rain-Snow,Light Snow,90,2012-12-26 23:54:00
7:54 PM,37.9,30.9,76,30.12,10.0,East,23.0,29.9,0.00,,Overcast,90,2012-12-27 00:54:00
8:54 PM,39.0,30.9,73,30.09,10.0,East,27.6,34.5,0.00,,Overcast,90,2012-12-27 01:54:00
9:54 PM,37.0,32.0,82,30.04,7.0,East,28.8,34.5,0.02,Rain,Light Rain,90,2012-12-27 02:54:00
10:22 PM,37.4,33.8,87,30.01,5.0,East,32.2,38.0,0.04,Rain,Rain,90,2012-12-27 03:22:00
10:54 PM,37.0,33.1,86,29.98,4.0,East,29.9,38.0,0.09,Rain,Rain,80,2012-12-27 03:54:00
11:54 PM,37.0,34.0,89,29.93,4.0,East,29.9,39.1,0.11,Rain,Rain,90,2012-12-27 04:54:00